Cloud_Cover
100 78 7 2 5 0 82 4 5 5 5 4 61 51 5 2 0 0 0 3 6 5 5 14 85 97 100 96 100 100 100 100 100 100 100 100 100 100 100 100 100 100 100 100
4 4 26 11 94 5 5 16 5 5 11 19 14 5 5 5 0 0 0 3 1 4 40 13 100 100 100 100 100 100 100 100 100 100 100 100 100 100 100 100 100 100 100 100
100 94 96 30 4 3 3 25 5 16 5 53 7 26 2 4 0 0 2 5 5 5 96 100 48 95 100 100 100 100 100 100 100 100 100 100 100 100 100 100 100 100 100 100
96 79 15 5 5 4 6 59 5 5 5 6 5 16 89 37 15 5 1 2 15 12 78 100 93 100 100 100 100 100 100 96 100 100 100 100 100 100 100 100 100 100 100 100
28 5 100 100 60 2 5 34 5 5 5 4 4 5 80 5 5 3 3 5 3 5 5 94 63 100 100 100 100 100 100 100 94 100 100 100 100 100 100 100 100 100 100 100
100 100 100 100 12 4 35 52 42 9 5 5 3 10 93 5 5 0 2 5 5 2 61 3 7 100 100 100 100 100 99 100 100 100 100 100 100 100 100 100 100 100 100 100
51 26 71 48 0 2 43 98 93 53 19 5 5 5 5 5 3 6 0 5 24 51 56 1 23 9 50 100 98 70 95 81 19 100 100 100 100 100 100 100 100 100 100 100
0 0 0 0 0 0 5 100 100 97 61 5 5 5 5 5 4 0 0 2 4 68 18 4 8 5 95 81 99 91 89 100 68 5 90 100 100 100 100 100 100 100 100 100
0 0 0 0 0 0 3 13 41 94 36 5 4 5 5 24 25 5 0 0 3 16 14 18 34 50 9 2 62 100 96 83 99 19 83 67 100 100 96 98 100 100 100 100
0 0 0 0 0 0 2 58 100 93 87 5 4 5 12 5 11 75 5 5 3 9 100 100 100 100 100 100 59 5 5 44 93 99 100 50 100 100 100 100 100 100 100 100
0 0 0 0 0 0 0 2 5 7 9 4 0 0 2 4 8 43 6 5 5 20 100 100 100 100 100 100 100 96 84 82 66 77 100 100 100 100 100 100 100 100 100 100
0 0 0 0 0 0 0 2 6 33 36 3 0 5 5 5 7 28 8 9 96 25 29 37 100 91 100 87 98 88 87 92 100 100 100 100 100 100 100 100 100 100 100 100
0 0 0 0 0 0 3 0 4 5 61 6 2 4 3 5 6 50 88 24 52 18 5 55 66 97 29 100 70 100 99 95 100 100 100 100 100 88 78 99 85 100 100 93
0 0 0 0 0 1 14 0 19 54 5 65 4 0 0 0 1 5 97 71 8 5 5 45 66 48 41 69 52 45 42 78 20 100 100 100 100 100 96 100 86 6 5 21
0 0 0 0 0 0 0 1 4 5 25 30 5 0 0 0 5 4 5 5 5 5 5 22 45 5 51 80 48 5 10 20 46 5 18 94 100 100 100 55 23 6 2 0
0 1 0 1 0 0 0 5 6 5 86 67 65 1 4 3 5 1 5 5 24 72 5 5 5 1 15 4 1 5 34 5 5 43 5 5 6 58 100 100 100 92 79 9
3 0 0 2 3 1 3 8 19 37 52 3 32 5 0 3 5 0 0 0 4 4 34 28 4 3 48 60 5 6 5 5 4 0 11 7 5 48 4 5 5 5 0 4
3 1 0 7 5 0 6 2 5 7 4 6 42 5 4 2 1 0 0 0 1 1 3 3 1 0 3 4 5 5 5 2 1 0 4 22 5 4 0 0 0 0 3 5
5 5 5 5 5 26 62 15 35 48 6 5 87 40 5 5 5 4 1 5 3 4 4 4 3 5 5 5 5 5 5 4 5 4 2 5 5 5 1 0 0 0 5 5
5 5 8 5 39 5 6 5 8 77 61 5 89 5 5 3 5 5 5 7 5 5 5 5 5 5 5 5 5 5 5 5 5 47 13 5 5 0 0 0 2 5 5 5
12 20 50 55 14 5 6 64 81 66 37 22 11 5 5 5 5 5 5 5 5 5 5 43 20 5 5 5 5 5 5 5 5 5 5 5 5 5 5 5 5 5 5 5
52 69 14 47 30 40 64 66 12 9 6 5 5 9 7 21 5 5 18 5 5 7 5 5 5 5 5 5 5 5 5 5 5 5 5 5 5 5 5 36 64 5 5 5
98 83 22 7 5 81 99 85 5 5 5 5 12 5 32 95 72 51 72 98 100 79 60 9 9 5 5 5 5 5 32 65 14 5 5 5 5 5 12 48 92 70 15 64
59 96 71 89 77 19 5 5 5 5 5 5 18 36 58 100 100 55 100 96 100 100 100 100 99 80 10 44 61 86 100 93 10 5 5 5 5 33 58 100 100 97 22 43
100 100 100 97 96 45 15 5 5 28 99 82 100 100 100 94 98 93 88 100 100 100 100 100 100 100 100 92 94 75 28 31 35 16 5 5 5 5 5 22 35 96 90 79
100 100 37 87 100 98 80 32 5 18 90 46 100 100 98 95 100 100 100 100 100 100 100 100 100 79 97 92 100 100 77 60 56 5 5 5 5 5 5 5 5 5 5 99
100 94 83 100 100 100 100 96 18 21 51 99 100 100 100 86 99 94 100 100 100 100 100 100 100 98 52 84 96 90 99 88 58 53 65 66 56 5 5 5 5 5 5 5